TimeEST,TemperatureF,Dew PointF,Humidity,Sea Level PressureIn,VisibilityMPH,Wind Direction,Wind SpeedMPH,Gust SpeedMPH,PrecipitationIn,Events,Conditions,WindDirDegrees,DateUTC
12:56 AM,46.9,45.0,93,30.01,2.5,West,4.6,-,0.00,,Mostly Cloudy,280,2012-12-09 05:56:00
1:24 AM,44.6,44.6,100,30.01,2.0,WNW,4.6,-,N/A,,Mostly Cloudy,300,2012-12-09 06:24:00
1:56 AM,46.4,44.6,93,30.02,1.5,NW,9.2,-,N/A,,Overcast,310,2012-12-09 06:56:00
2:56 AM,45.0,44.1,97,30.05,1.5,WNW,8.1,-,N/A,,Scattered Clouds,300,2012-12-09 07:56:00
3:56 AM,46.0,43.0,89,30.07,5.0,NNW,8.1,-,N/A,,Clear,340,2012-12-09 08:56:00
4:25 AM,46.4,44.6,93,30.08,5.0,North,8.1,-,N/A,,Scattered Clouds,10,2012-12-09 09:25:00
4:56 AM,45.0,44.1,97,30.10,4.0,North,4.6,-,N/A,,Overcast,360,2012-12-09 09:56:00
5:56 AM,43.0,41.0,93,30.15,5.0,North,5.8,-,N/A,,Scattered Clouds,360,2012-12-09 10:56:00
6:56 AM,44.1,39.9,85,30.18,10.0,North,3.5,-,N/A,,Scattered Clouds,360,2012-12-09 11:56:00
7:56 AM,44.1,39.0,82,30.21,10.0,North,11.5,-,N/A,,Mostly Cloudy,10,2012-12-09 12:56:00
8:56 AM,41.0,34.0,76,30.23,10.0,North,10.4,-,N/A,,Overcast,10,2012-12-09 13:56:00
9:56 AM,42.1,32.0,67,30.24,10.0,NNE,10.4,-,N/A,,Mostly Cloudy,20,2012-12-09 14:56:00
10:56 AM,42.1,32.0,67,30.25,10.0,North,6.9,-,N/A,,Mostly Cloudy,360,2012-12-09 15:56:00
11:56 AM,42.1,32.0,67,30.24,10.0,North,5.8,-,N/A,,Mostly Cloudy,350,2012-12-09 16:56:00
12:56 PM,42.1,33.1,70,30.22,10.0,North,5.8,-,0.00,Rain,Light Rain,10,2012-12-09 17:56:00
1:56 PM,42.1,32.0,67,30.21,10.0,ENE,5.8,-,0.00,,Overcast,70,2012-12-09 18:56:00
2:56 PM,42.1,33.1,70,30.21,10.0,NNE,5.8,-,0.00,Rain,Light Rain,30,2012-12-09 19:56:00
3:56 PM,41.0,35.1,79,30.22,10.0,Variable,3.5,-,0.01,Rain,Light Rain,0,2012-12-09 20:56:00
4:56 PM,39.9,36.0,86,30.21,10.0,East,3.5,-,0.01,Rain,Light Rain,90,2012-12-09 21:56:00
5:56 PM,41.0,37.0,86,30.22,6.0,ENE,5.8,-,0.02,Rain,Light Rain,60,2012-12-09 22:56:00
6:56 PM,41.0,37.9,89,30.20,7.0,ENE,8.1,-,0.01,,Overcast,70,2012-12-09 23:56:00
7:39 PM,41.0,39.2,93,30.16,1.5,ENE,6.9,-,0.00,Rain,Light Rain,70,2012-12-10 00:39:00
7:56 PM,41.0,39.0,93,30.17,1.5,East,9.2,-,0.01,Rain,Light Rain,80,2012-12-10 00:56:00
8:56 PM,42.8,39.2,87,30.13,1.0,East,6.9,-,N/A,Rain,Light Rain,100,2012-12-10 01:56:00
9:56 PM,42.1,39.9,92,30.10,2.0,East,11.5,-,0.03,,Overcast,90,2012-12-10 02:56:00
10:56 PM,43.0,41.0,93,30.05,2.5,East,12.7,21.9,0.12,Rain,Rain,90,2012-12-10 03:56:00
11:56 PM,43.0,41.0,93,30.03,2.5,East,10.4,-,0.12,Rain,Light Rain,80,2012-12-10 04:56:00